x

Aberporth (03502) Weather Station

3:00 - Fri 26th Dec 2014 All times are GMT.

  • Wind
    9mph
  • Ar Temp 38°f
  • Sea Pressure 1032mb
  • Aberporth
  • Aberporth

More Historic Weather Station data

Upgrade to MSW Pro to gain access to the past 30 days of data for over 8000 Wavebouys and Weather Stations around the globe.

Join Pro

Comparision Forecast

View Surf forecast
   
Sex 12/26 3:00 9
mph
1032mb 38f
2:00 8
mph
1032mb 38f
1:00 6
mph
1032mb 38f
12:00 7
mph
1033mb 42f
Qui 12/25 11:00 10
mph
1033mb 43f
10:00 13
mph
1033mb 43f
9:00 14
mph
1033mb 43f
8:00 15
mph
1033mb 44f
7:00 19
mph
1033mb 44f
6:00 17
mph
1033mb 44f
5:00 18
mph
1032mb 44f
4:00 19
mph
1032mb 44f
3:00 19
mph
1032mb 44f
2:00 18 29 mph 1031mb 45f
1:00 21 30 mph 1031mb 45f
12:00 22 31 mph 1031mb 45f
11:00 22
mph
1031mb 45f
10:00 22
mph
1030mb 45f
9:00 19 30 mph 1029mb 44f
8:00 21 30 mph 1029mb 44f
7:00 24 30 mph 1028mb 44f
6:00 21 30 mph 1028mb 44f
5:00 22 30 mph 1027mb 45f
4:00 24 31 mph 1027mb 45f
3:00 22 31 mph 1026mb 45f
2:00 22 32 mph 1026mb 45f
1:00 22 31 mph 1025mb 45f
12:00 19 29 mph 1025mb 45f
Qua 12/24 11:00 19 31 mph 1025mb 44f
10:00 22 32 mph 1024mb 45f
9:00 22 33 mph 1024mb 45f
8:00 24 36 mph 1023mb 45f
7:00 24 34 mph 1023mb 45f
6:00 23 31 mph 1022mb 45f
5:00 22 33 mph 1021mb 45f
4:00 24 34 mph 1021mb 45f
3:00 24 36 mph 1020mb 45f
2:00 24 34 mph 1020mb 45f
1:00 28 36 mph 1020mb 45f
12:00 24 36 mph 1019mb 46f
11:00 23 36 mph 1019mb 45f
10:00 23 38 mph 1018mb 45f
9:00 21 31 mph 1018mb 44f
8:00 21 30 mph 1017mb 44f
7:00 21 29 mph 1016mb 44f
6:00 22 30 mph 1015mb 44f
5:00 22 29 mph 1015mb 45f
4:00 21 30 mph 1014mb 46f
3:00 23 33 mph 1013mb 45f
2:00 18
mph
1012mb 46f
1:00 14 33 mph 1012mb 48f
12:00 29 40 mph 1011mb 51f
Ter 12/23 11:00 30 40 mph 1010mb 52f
10:00 25 36 mph 1010mb 51f
9:00 26 38 mph 1010mb 51f
8:00 25 36 mph 1010mb 51f
7:00 23 36 mph 1010mb 51f
6:00 21 38 mph 1011mb 50f
5:00 22 37 mph 1011mb 50f
4:00 25 39 mph 1012mb 50f
3:00 26 46 mph 1012mb 51f
2:00 30 45 mph 1012mb 52f
1:00 30 46 mph 1013mb 52f
12:00 29 44 mph 1014mb 52f
11:00 26 40 mph 1014mb 52f
10:00 25 41 mph 1014mb 52f
9:00 26 40 mph 1014mb 51f
8:00 26 38 mph 1015mb 51f
7:00 28 37 mph 1015mb 51f
6:00 26 41 mph 1015mb 51f
5:00 30 41 mph 1015mb 51f
4:00 26 41 mph 1015mb 51f
3:00 30 41 mph 1016mb 52f
2:00 29 43 mph 1016mb 51f
1:00 29 44 mph 1015mb 51f
12:00 29 41 mph 1016mb 51f
Seg 12/22 11:00 26 38 mph 1016mb 51f
10:00 25 39 mph 1016mb 51f
9:00 30 44 mph 1016mb 51f
8:00 29 48 mph 1016mb 52f
7:00 39 51 mph 1016mb 52f
6:00 33 46 mph 1016mb 52f
5:00 36 48 mph 1016mb 52f
4:00 31 49 mph 1016mb 52f
3:00 31 46 mph 1015mb 53f
2:00 34 48 mph 1015mb 53f
1:00 34 45 mph 1016mb 53f
12:00 30 47 mph 1017mb 53f
11:00 32 48 mph 1017mb 52f
10:00 38 49 mph 1017mb 52f
9:00 37 51 mph 1016mb 52f
8:00 33 49 mph 1016mb 52f
7:00 34 46 mph 1016mb 52f
6:00 33 47 mph 1016mb 52f
5:00 31 46 mph 1017mb 52f